Time,TemperatureF,DewpointF,PressureIn,WindDirection,WindDirectionDegrees,WindSpeedMPH,WindSpeedGustMPH,Humidity,HourlyPrecipIn,Conditions,Clouds,dailyrainin,SoftwareType,DateUTC
2013-03-08 00:14:00,29.3,26.7,29.99,NNW,337,3.2,-999.0,90,-99.99,,,0.00,Acu-Link.com,2013-03-08 05:14:00,
2013-03-08 00:30:00,29.3,26.7,29.99,NNW,337,3.7,-999.0,90,-99.99,,,0.00,Acu-Link.com,2013-03-08 05:30:00,
2013-03-08 00:45:00,29.1,26.8,29.98,NW,315,2.2,-999.0,91,-99.99,,,0.00,Acu-Link.com,2013-03-08 05:45:00,
2013-03-08 01:00:00,29.1,26.8,29.99,WNW,292,3.7,-999.0,91,-99.99,,,0.00,Acu-Link.com,2013-03-08 06:00:00,
2013-03-08 01:15:00,28.9,26.6,29.98,NNW,337,2.7,-999.0,91,-99.99,,,0.00,Acu-Link.com,2013-03-08 06:15:00,
2013-03-08 01:30:00,28.8,26.5,29.98,NW,315,2.7,-999.0,91,-99.99,,,0.00,Acu-Link.com,2013-03-08 06:30:00,
2013-03-08 01:45:00,28.8,26.5,29.98,NNW,337,3.7,-999.0,91,-99.99,,,0.00,Acu-Link.com,2013-03-08 06:45:00,
2013-03-08 02:00:00,28.8,26.5,29.97,NW,315,3.2,-999.0,91,-99.99,,,0.00,Acu-Link.com,2013-03-08 07:00:00,
2013-03-08 02:15:00,28.6,26.3,29.96,NNE,22,3.7,-999.0,91,-99.99,,,0.00,Acu-Link.com,2013-03-08 07:15:00,
2013-03-08 02:30:00,28.8,26.5,29.95,NW,315,4.2,-999.0,91,-99.99,,,0.00,Acu-Link.com,2013-03-08 07:30:00,
2013-03-08 02:45:00,28.8,26.5,29.95,NNW,337,2.7,-999.0,91,-99.99,,,0.00,Acu-Link.com,2013-03-08 07:45:00,
2013-03-08 03:00:00,28.8,26.5,29.95,NNW,337,3.7,-999.0,91,-99.99,,,0.00,Acu-Link.com,2013-03-08 08:00:00,
2013-03-08 03:16:00,28.8,26.5,29.95,NNW,337,3.7,-999.0,91,-99.99,,,0.00,Acu-Link.com,2013-03-08 08:16:00,
2013-03-08 03:31:00,28.8,26.5,29.95,NW,315,2.7,-999.0,91,-99.99,,,0.00,Acu-Link.com,2013-03-08 08:31:00,
2013-03-08 03:46:00,28.8,26.5,29.95,WNW,292,2.7,-999.0,91,-99.99,,,0.00,Acu-Link.com,2013-03-08 08:46:00,
2013-03-08 04:01:00,28.8,26.5,29.95,WNW,292,4.2,-999.0,91,-99.99,,,0.00,Acu-Link.com,2013-03-08 09:01:00,
2013-03-08 04:16:00,28.6,26.3,29.95,NW,315,3.2,-999.0,91,-99.99,,,0.00,Acu-Link.com,2013-03-08 09:16:00,
2013-03-08 04:32:00,28.8,26.5,29.94,NNW,337,3.2,-999.0,91,-99.99,,,0.00,Acu-Link.com,2013-03-08 09:32:00,
2013-03-08 04:47:00,28.8,26.5,29.94,NNW,337,4.2,-999.0,91,-99.99,,,0.00,Acu-Link.com,2013-03-08 09:47:00,
2013-03-08 05:02:00,28.6,26.3,29.95,NNW,337,3.2,-999.0,91,-99.99,,,0.00,Acu-Link.com,2013-03-08 10:02:00,
2013-03-08 05:17:00,28.6,26.3,29.95,NW,315,3.2,-999.0,91,-99.99,,,0.00,Acu-Link.com,2013-03-08 10:17:00,
2013-03-08 05:33:00,28.6,26.3,29.94,North,0,4.2,-999.0,91,-99.99,,,0.00,Acu-Link.com,2013-03-08 10:33:00,
2013-03-08 05:48:00,28.6,26.3,29.94,North,0,2.2,-999.0,91,-99.99,,,0.00,Acu-Link.com,2013-03-08 10:48:00,
2013-03-08 06:03:00,28.6,26.3,29.95,NNW,337,4.7,-999.0,91,-99.99,,,0.00,Acu-Link.com,2013-03-08 11:03:00,
2013-03-08 06:18:00,28.8,26.5,29.96,NNE,22,3.2,-999.0,91,-99.99,,,0.00,Acu-Link.com,2013-03-08 11:18:00,
2013-03-08 06:34:00,28.6,26.3,29.97,NNW,337,4.7,-999.0,91,-99.99,,,0.00,Acu-Link.com,2013-03-08 11:34:00,
2013-03-08 06:49:00,28.8,26.5,29.96,North,0,3.7,-999.0,91,-99.99,,,0.00,Acu-Link.com,2013-03-08 11:49:00,
2013-03-08 07:04:00,28.8,26.5,29.97,WNW,292,4.7,-999.0,91,-99.99,,,0.00,Acu-Link.com,2013-03-08 12:04:00,
2013-03-08 07:19:00,28.9,26.6,29.97,NW,315,3.7,-999.0,91,-99.99,,,0.00,Acu-Link.com,2013-03-08 12:19:00,
2013-03-08 07:35:00,28.9,26.6,29.97,NW,315,3.7,-999.0,91,-99.99,,,0.00,Acu-Link.com,2013-03-08 12:35:00,
2013-03-08 07:50:00,28.9,26.6,29.96,NW,315,3.7,-999.0,91,-99.99,,,0.00,Acu-Link.com,2013-03-08 12:50:00,
2013-03-08 08:05:00,28.9,26.6,29.97,North,0,4.7,-999.0,91,-99.99,,,0.00,Acu-Link.com,2013-03-08 13:05:00,
2013-03-08 08:20:00,28.9,26.6,29.97,NNW,337,3.7,-999.0,91,-99.99,,,0.00,Acu-Link.com,2013-03-08 13:20:00,
2013-03-08 08:35:00,28.9,26.6,29.97,NW,315,3.7,-999.0,91,-99.99,,,0.00,Acu-Link.com,2013-03-08 13:35:00,
2013-03-08 08:50:00,29.1,26.8,29.97,WNW,292,5.3,-999.0,91,-99.99,,,0.00,Acu-Link.com,2013-03-08 13:50:00,
2013-03-08 09:05:00,29.1,26.8,29.97,NNW,337,3.7,-999.0,91,-99.99,,,0.00,Acu-Link.com,2013-03-08 14:05:00,
2013-03-08 09:21:00,29.7,27.4,29.98,WNW,292,3.7,-999.0,91,-99.99,,,0.00,Acu-Link.com,2013-03-08 14:21:00,
2013-03-08 09:36:00,29.3,26.7,29.99,WNW,292,4.7,-999.0,90,-99.99,,,0.00,Acu-Link.com,2013-03-08 14:36:00,
2013-03-08 09:51:00,29.7,27.1,29.99,NW,315,3.2,-999.0,90,-99.99,,,0.00,Acu-Link.com,2013-03-08 14:51:00,
2013-03-08 10:07:00,29.8,27.2,29.99,NNW,337,4.2,-999.0,90,-99.99,,,0.00,Acu-Link.com,2013-03-08 15:07:00,
2013-03-08 10:22:00,30.6,27.8,30.00,NW,315,2.7,-999.0,89,-99.99,,,0.00,Acu-Link.com,2013-03-08 15:22:00,
2013-03-08 10:37:00,31.1,28.0,29.99,NW,315,3.2,-999.0,88,-99.99,,,0.00,Acu-Link.com,2013-03-08 15:37:00,
2013-03-08 10:52:00,31.3,27.9,29.99,NNW,337,2.7,-999.0,87,-99.99,,,0.00,Acu-Link.com,2013-03-08 15:52:00,
2013-03-08 11:07:00,31.5,27.8,30.00,NNW,337,3.2,-999.0,86,-99.99,,,0.00,Acu-Link.com,2013-03-08 16:07:00,
2013-03-08 11:23:00,30.7,27.3,30.00,NW,315,4.7,-999.0,87,-99.99,,,0.00,Acu-Link.com,2013-03-08 16:23:00,
2013-03-08 11:38:00,31.1,28.2,30.00,North,0,3.2,-999.0,89,-99.99,,,0.00,Acu-Link.com,2013-03-08 16:38:00,
2013-03-08 11:54:00,31.5,28.6,30.00,NNW,337,3.2,-999.0,89,-99.99,,,0.00,Acu-Link.com,2013-03-08 16:54:00,
2013-03-08 12:09:00,31.6,28.5,29.99,NW,315,3.2,-999.0,88,-99.99,,,0.00,Acu-Link.com,2013-03-08 17:09:00,
2013-03-08 12:24:00,32.5,28.8,30.01,NNE,22,2.7,-999.0,86,-99.99,,,0.00,Acu-Link.com,2013-03-08 17:24:00,
2013-03-08 12:39:00,34.5,29.6,30.00,NW,315,2.7,-999.0,82,-99.99,,,0.00,Acu-Link.com,2013-03-08 17:39:00,
2013-03-08 12:55:00,35.8,29.6,30.00,NNW,337,2.2,-999.0,78,-99.99,,,0.00,Acu-Link.com,2013-03-08 17:55:00,
2013-03-08 13:10:00,37.8,29.6,30.01,North,0,2.2,-999.0,72,-99.99,,,0.00,Acu-Link.com,2013-03-08 18:10:00,
2013-03-08 13:25:00,38.5,28.9,30.00,NW,315,4.7,-999.0,68,-99.99,,,0.00,Acu-Link.com,2013-03-08 18:25:00,
2013-03-08 13:40:00,39.4,29.7,30.00,East,90,0.0,-999.0,68,-99.99,,,0.00,Acu-Link.com,2013-03-08 18:40:00,
2013-03-08 13:56:00,40.1,29.3,30.00,ENE,67,2.7,-999.0,65,-99.99,,,0.00,Acu-Link.com,2013-03-08 18:56:00,
2013-03-08 14:11:00,39.9,28.3,30.00,NNW,337,4.2,-999.0,63,-99.99,,,0.01,Acu-Link.com,2013-03-08 19:11:00,
2013-03-08 14:26:00,40.5,28.5,30.00,NW,315,3.2,-999.0,62,-99.99,,,0.04,Acu-Link.com,2013-03-08 19:26:00,
2013-03-08 14:41:00,40.6,27.8,30.00,NNW,337,4.2,-999.0,60,-99.99,,,0.04,Acu-Link.com,2013-03-08 19:41:00,
2013-03-08 14:56:00,40.8,27.6,30.01,North,0,3.2,-999.0,59,-99.99,,,0.05,Acu-Link.com,2013-03-08 19:56:00,
2013-03-08 15:11:00,40.8,27.2,30.01,NNW,337,3.7,-999.0,58,-99.99,,,0.06,Acu-Link.com,2013-03-08 20:11:00,
2013-03-08 15:26:00,41.0,27.8,30.01,NNW,337,4.2,-999.0,59,-99.99,,,0.09,Acu-Link.com,2013-03-08 20:26:00,
2013-03-08 15:42:00,41.0,27.8,30.01,NNW,337,2.7,-999.0,59,-99.99,,,0.12,Acu-Link.com,2013-03-08 20:42:00,
2013-03-08 15:57:00,41.0,27.8,30.02,North,0,1.7,-999.0,59,-99.99,,,0.14,Acu-Link.com,2013-03-08 20:57:00,
2013-03-08 16:12:00,41.2,28.0,30.03,NNW,337,2.2,-999.0,59,-99.99,,,0.18,Acu-Link.com,2013-03-08 21:12:00,
2013-03-08 16:28:00,41.2,28.0,30.04,NNW,337,2.2,-999.0,59,-99.99,,,0.19,Acu-Link.com,2013-03-08 21:28:00,
2013-03-08 16:43:00,40.8,29.2,30.05,NNE,22,0.0,-999.0,63,-99.99,,,0.21,Acu-Link.com,2013-03-08 21:43:00,
2013-03-08 16:58:00,40.3,30.6,30.06,WNW,292,0.0,-999.0,68,-99.99,,,0.21,Acu-Link.com,2013-03-08 21:58:00,
2013-03-08 17:13:00,39.4,30.4,30.06,NNE,22,0.0,-999.0,70,-99.99,,,0.23,Acu-Link.com,2013-03-08 22:13:00,
2013-03-08 17:29:00,38.8,30.6,30.07,East,90,0.0,-999.0,72,-99.99,,,0.23,Acu-Link.com,2013-03-08 22:29:00,
2013-03-08 17:44:00,38.7,30.5,30.07,NNE,22,1.7,-999.0,72,-99.99,,,0.24,Acu-Link.com,2013-03-08 22:44:00,
2013-03-08 17:59:00,38.8,30.2,30.07,NW,315,2.7,-999.0,71,-99.99,,,0.25,Acu-Link.com,2013-03-08 22:59:00,
2013-03-08 18:14:00,39.2,29.9,30.07,NNW,337,2.7,-999.0,69,-99.99,,,0.25,Acu-Link.com,2013-03-08 23:14:00,
2013-03-08 18:30:00,39.0,29.0,30.08,NW,315,4.2,-999.0,67,-99.99,,,0.25,Acu-Link.com,2013-03-08 23:30:00,
2013-03-08 18:45:00,38.8,28.4,30.08,NNW,337,4.2,-999.0,66,-99.99,,,0.26,Acu-Link.com,2013-03-08 23:45:00,
2013-03-08 19:00:00,38.7,28.0,30.08,NNW,337,2.7,-999.0,65,-99.99,,,0.26,Acu-Link.com,2013-03-09 00:00:00,
2013-03-08 19:16:00,38.1,27.4,30.09,NNW,337,3.2,-999.0,65,-99.99,,,0.26,Acu-Link.com,2013-03-09 00:16:00,
2013-03-08 19:31:00,37.6,26.9,30.10,NNW,337,2.7,-999.0,65,-99.99,,,0.26,Acu-Link.com,2013-03-09 00:31:00,
2013-03-08 19:46:00,37.6,26.5,30.10,NNW,337,3.2,-999.0,64,-99.99,,,0.27,Acu-Link.com,2013-03-09 00:46:00,
2013-03-08 20:01:00,37.2,25.8,30.11,NNW,337,3.7,-999.0,63,-99.99,,,0.27,Acu-Link.com,2013-03-09 01:01:00,
2013-03-08 20:17:00,37.4,25.6,30.12,WNW,292,3.2,-999.0,62,-99.99,,,0.27,Acu-Link.com,2013-03-09 01:17:00,
2013-03-08 20:32:00,36.9,24.7,30.12,NW,315,3.2,-999.0,61,-99.99,,,0.27,Acu-Link.com,2013-03-09 01:32:00,
2013-03-08 20:47:00,36.7,24.5,30.12,NW,315,3.2,-999.0,61,-99.99,,,0.27,Acu-Link.com,2013-03-09 01:47:00,
2013-03-08 21:02:00,36.3,24.2,30.13,NNW,337,2.7,-999.0,61,-99.99,,,0.27,Acu-Link.com,2013-03-09 02:02:00,
2013-03-08 21:17:00,36.1,24.0,30.13,NW,315,3.2,-999.0,61,-99.99,,,0.27,Acu-Link.com,2013-03-09 02:17:00,
2013-03-08 21:33:00,36.1,23.6,30.13,NW,315,3.2,-999.0,60,-99.99,,,0.27,Acu-Link.com,2013-03-09 02:33:00,
2013-03-08 21:48:00,36.0,23.5,30.14,NW,315,3.7,-999.0,60,-99.99,,,0.27,Acu-Link.com,2013-03-09 02:48:00,
2013-03-08 22:03:00,35.8,23.3,30.14,NW,315,3.2,-999.0,60,-99.99,,,0.27,Acu-Link.com,2013-03-09 03:03:00,
2013-03-08 22:18:00,35.6,23.1,30.14,NW,315,3.2,-999.0,60,-99.99,,,0.27,Acu-Link.com,2013-03-09 03:18:00,
2013-03-08 22:33:00,35.4,22.9,30.15,NNW,337,2.7,-999.0,60,-99.99,,,0.27,Acu-Link.com,2013-03-09 03:33:00,
2013-03-08 22:48:00,35.4,22.5,30.14,NW,315,3.2,-999.0,59,-99.99,,,0.27,Acu-Link.com,2013-03-09 03:48:00,
2013-03-08 23:03:00,35.4,22.5,30.14,North,0,2.7,-999.0,59,-99.99,,,0.27,Acu-Link.com,2013-03-09 04:03:00,
2013-03-08 23:18:00,34.0,22.4,30.14,NW,315,0.0,-999.0,62,-99.99,,,0.27,Acu-Link.com,2013-03-09 04:18:00,
2013-03-08 23:34:00,34.5,22.5,30.14,NW,315,2.2,-999.0,61,-99.99,,,0.27,Acu-Link.com,2013-03-09 04:34:00,
2013-03-08 23:49:00,34.3,21.9,30.14,NW,315,3.2,-999.0,60,-99.99,,,0.27,Acu-Link.com,2013-03-09 04:49:00,